GFSNIL_sfc_rhum_015.txt.gz
RH
34 35 33 34 32 29 28 29 28 28 27 27 29 31 32 35 36 36 37 39 39 36
36 37 38 34 31 30 29 26 27 27 28 30 31 32 33 31 32 35 37 40 42 40
37 36 34 30 30 28 26 26 27 28 29 30 31 32 33 34 36 36 38 38 41 41
34 32 28 27 26 25 25 26 28 28 30 31 31 32 31 33 36 40 42 42 43 45
30 28 26 25 25 25 26 28 29 30 31 31 33 32 31 36 41 44 45 46 46 46
28 26 26 26 27 28 29 30 31 33 33 33 35 32 31 38 43 46 48 48 49 47
28 28 28 30 30 30 30 33 35 34 34 36 34 32 34 44 47 49 48 50 50 49
31 32 33 34 34 33 35 36 36 36 38 37 33 28 44 49 50 53 52 51 49 50
36 35 37 35 34 38 39 38 37 38 41 42 32 50 52 51 50 53 52 52 50 51
36 36 36 33 35 39 39 39 39 38 38 39 40 52 54 54 51 53 53 52 53 53
36 35 33 33 36 38 39 39 38 39 41 42 41 57 56 58 52 54 54 54 55 57
32 32 32 36 38 40 40 40 41 41 44 46 49 59 60 57 53 53 54 53 55 58
32 31 36 39 41 43 42 40 40 44 47 55 48 62 61 56 52 55 54 54 52 68
34 39 41 42 43 44 45 44 48 51 51 50 53 54 61 61 53 55 59 57 56 51

GFSNIL_sfc_rhum_018.txt.gz
RH
44 36 29 28 25 23 24 24 23 22 21 21 22 24 25 27 27 29 28 33 32 29
40 34 30 28 25 24 23 21 21 21 21 22 23 24 25 22 24 26 29 32 34 33
35 32 31 26 26 25 21 20 22 22 21 22 23 24 25 25 27 27 28 30 33 33
34 30 25 24 24 22 20 21 21 21 21 22 23 23 23 25 27 31 33 34 35 36
31 26 24 22 21 19 20 20 20 20 21 22 23 23 22 25 29 33 35 36 38 37
27 24 22 22 20 20 21 21 22 24 24 24 26 24 22 26 31 34 36 38 40 38
25 23 22 22 22 22 22 24 25 25 25 27 25 25 27 34 36 36 36 39 41 38
25 24 25 25 24 24 25 26 27 27 28 28 26 23 38 39 38 39 38 38 37 38
28 27 29 27 27 30 31 29 28 28 34 36 24 46 51 50 40 39 40 39 37 38
28 29 29 27 28 32 31 30 29 29 29 28 29 50 53 54 44 42 40 41 41 40
28 28 27 26 29 30 28 29 28 28 29 30 30 53 56 58 43 41 41 42 41 44
26 25 26 29 29 30 29 29 29 29 32 31 30 48 59 56 42 39 40 39 41 45
24 25 28 31 31 30 28 28 27 31 30 39 32 43 59 54 42 40 41 40 41 50
27 26 28 31 30 31 29 28 29 31 30 32 36 38 55 60 49 45 46 46 44 40

GFSNIL_sfc_rhum_021.txt.gz
RH
49 47 39 39 33 31 31 29 28 26 25 25 25 26 27 30 30 29 32 37 37 33
47 42 37 32 30 29 28 26 25 24 24 24 24 24 24 23 25 27 30 36 40 37
41 36 32 30 30 29 26 24 25 24 24 24 23 24 24 26 26 28 30 32 34 36
41 38 32 29 28 26 23 24 23 23 23 23 23 22 23 24 26 29 32 34 36 37
39 32 34 28 25 22 23 22 22 21 21 21 22 22 22 24 26 30 33 34 37 37
33 32 30 25 23 22 22 22 22 22 23 23 25 24 22 23 26 30 33 36 37 39
34 29 25 24 24 24 23 24 24 24 24 26 24 25 25 30 35 36 34 36 38 38
32 27 27 27 26 26 26 25 26 26 28 28 25 22 38 40 39 38 37 37 36 38
30 29 31 29 29 32 31 28 27 29 35 41 24 46 50 52 45 40 39 40 38 37
31 31 33 32 33 34 31 29 30 28 28 27 28 45 52 54 48 44 41 40 42 41
36 37 38 36 32 30 29 29 27 28 28 30 29 45 52 57 49 40 40 39 41 42
32 29 29 31 30 28 30 29 28 28 30 30 28 42 53 56 46 39 40 38 39 42
27 28 29 31 32 30 27 28 27 31 28 31 32 32 46 53 46 42 44 41 41 48
29 30 33 32 30 30 27 28 28 30 27 28 30 35 45 53 52 50 52 50 49 46

GFSNIL_sfc_rhum_027.txt.gz
RH
78 81 75 68 60 56 42 38 39 42 40 39 42 43 48 51 51 48 52 48 51 52
77 76 67 61 50 42 38 38 38 42 38 40 38 42 44 45 40 42 49 50 52 55
73 65 61 52 47 45 43 36 38 39 40 37 36 39 42 43 41 41 48 52 48 52
63 57 52 48 46 44 40 42 44 47 33 33 34 37 40 41 40 40 44 47 49 51
54 49 50 48 44 43 52 49 51 34 33 32 36 34 34 34 35 40 42 44 49 51
54 53 48 45 43 43 45 46 37 32 32 34 37 33 32 35 38 41 44 47 51 52
53 45 43 47 42 42 38 38 31 31 33 39 36 34 38 45 48 48 47 50 52 53
43 42 44 46 51 47 45 32 32 33 35 39 39 41 52 52 54 56 54 53 51 51
42 48 53 55 50 46 43 36 38 39 50 46 36 54 55 56 60 58 58 60 60 55
53 58 57 56 63 63 62 53 49 44 41 41 50 54 53 54 59 62 65 65 62 55
72 79 79 77 83 87 88 76 55 38 36 45 49 54 54 57 64 67 62 58 59 61
85 88 90 92 94 88 51 37 38 38 41 46 58 49 48 60 66 65 66 61 63 65
91 92 91 71 40 39 42 36 39 41 40 43 44 41 40 53 62 71 70 71 67 64
88 80 49 41 41 38 36 38 39 42 43 43 44 44 36 41 62 66 69 74 71 66